NO3U Weather Reports


time (UTC)temp
C
wind
direction
speed
KPH
gust
KPH
rain 1hr
cm
rain 24hr
cm
rain mn
cm
humidity
%
barometer
mb
20260504030243 5 6 0.0 0.0 0.00 0.00 0.00 88 1014.2
20260504025739 5 51 0.0 0.0 0.00 0.00 0.00 88 1014.2
20260504025236 5 66 0.0 0.0 0.00 0.00 0.00 88 1014.2
20260504024733 5 94 0.0 0.0 0.00 0.00 0.00 87 1014.2
20260504024229 5 94 0.0 0.0 0.00 0.00 0.00 86 1014.1
20260504023726 5 93 0.0 0.0 0.00 0.00 0.00 85 1014.4
20260504023222 5 93 0.0 0.0 0.00 0.00 0.00 85 1014.5
20260504022718 5 96 0.0 0.0 0.00 0.00 0.00 84 1014.4
20260504022215 5 96 0.0 0.0 0.00 0.00 0.00 82 1014.4
20260504021712 6 96 0.0 0.0 0.00 0.00 0.00 82 1014.1
20260504021209 6 96 0.0 0.0 0.00 0.00 0.00 80 1014.2
20260504020706 6 106 0.0 0.0 0.00 0.00 0.00 79 1014.0
20260504020202 6 102 0.0 0.0 0.00 0.00 0.00 78 1014.1
20260504015659 7 102 0.0 0.0 0.00 0.00 0.00 78 1014.3
20260504015155 7 101 0.0 0.0 0.00 0.00 0.00 76 1014.3
20260504014650 7 104 0.0 0.0 0.00 0.00 0.00 74 1014.1
20260504014148 7 113 0.0 0.0 0.00 0.00 0.00 71 1014.3
20260504013646 7 94 0.0 0.0 0.00 0.00 0.00 71 1014.1
20260504013142 8 85 0.0 0.0 0.00 0.00 0.00 71 1014.1
20260504012640 8 100 0.0 0.0 0.00 0.00 0.00 69 1014.0
20260504012138 8 92 0.0 0.0 0.00 0.00 0.00 67 1014.0
20260504011634 8 106 0.0 0.0 0.00 0.00 0.00 66 1013.9
20260504011131 8 85 0.0 0.0 0.00 0.00 0.00 65 1014.1
20260504010626 9 80 0.0 0.0 0.00 0.00 0.00 65 1014.1
20260504010122 9 98 0.0 0.0 0.00 0.00 0.00 64 1014.0
20260504005620 10 98 0.0 0.0 0.00 0.00 0.00 63 1014.1
20260504005116 10 82 0.0 0.0 0.00 0.00 0.00 60 1014.1
20260504004615 10 122 0.0 1.6 0.00 0.00 0.00 61 1013.9
20260504004111 11 69 0.0 0.0 0.00 0.00 0.00 61 1013.8
20260504003608 11 55 0.0 0.0 0.00 0.00 0.00 59 1014.0
20260504003104 11 112 0.0 0.0 0.00 0.00 0.00 58 1014.0
20260504002601 11 78 0.0 0.0 0.00 0.00 0.00 58 1013.8
20260504002059 11 107 0.0 0.0 0.00 0.00 0.00 56 1013.8
20260504001556 12 87 0.0 0.0 0.00 0.00 0.00 59 1014.0
20260504001052 12 96 0.0 0.0 0.00 0.00 0.00 51 1013.9
20260504000549 12 103 0.0 0.0 0.00 0.00 0.00 56 1013.9
20260504000047 12 79 0.0 0.0 0.00 0.00 0.00 53 1013.9
20260503235545 12 68 0.0 0.0 0.00 0.00 0.00 51 1014.0
20260503235042 13 44 0.0 1.6 0.00 0.00 0.00 47 1014.0
20260503234539 13 61 0.0 3.2 0.00 0.00 0.00 47 1013.8
20260503234038 13 1 0.0 1.6 0.00 0.00 0.00 45 1013.9
20260503233533 13 24 0.0 3.2 0.00 0.00 0.00 43 1013.9
20260503233030 13 55 3.2 3.2 0.00 0.00 0.00 42 1014.1
20260503232527 13 323 3.2 3.2 0.00 0.00 0.00 43 1013.9
20260503232024 13 65 3.2 4.8 0.00 0.00 0.00 42 1013.9
20260503231522 14 122 1.6 3.2 0.00 0.00 0.00 43 1014.0
20260503231018 14 278 1.6 3.2 0.00 0.00 0.00 42 1013.9
20260503230515 14 94 0.0 11.3 0.00 0.00 0.00 42 1013.8
20260503230013 14 69 0.0 1.6 0.00 0.00 0.00 42 1013.9
20260503225509 14 101 6.4 9.7 0.00 0.00 0.00 40 1013.9
20260503225004 14 247 3.2 4.8 0.00 0.00 0.00 40 1013.8
20260503224502 14 19 0.0 6.4 0.00 0.00 0.00 40 1013.9
20260503224000 14 115 3.2 4.8 0.00 0.00 0.00 39 1014.0
20260503223457 15 353 3.2 9.7 0.00 0.00 0.00 39 1014.1
20260503222952 15 110 11.3 20.9 0.00 0.00 0.00 39 1014.0
20260503222451 15 342 1.6 4.8 0.00 0.00 0.00 39 1014.1
20260503221949 15 122 1.6 4.8 0.00 0.00 0.00 41 1013.9
20260503221447 15 347 6.4 6.4 0.00 0.00 0.00 39 1014.0
20260503220944 15 98 3.2 4.8 0.00 0.00 0.00 39 1014.0
20260503220440 15 66 0.0 4.8 0.00 0.00 0.00 38 1014.0
20260503215937 15 139 0.0 4.8 0.00 0.00 0.00 38 1014.2
20260503215434 15 104 14.5 24.1 0.00 0.00 0.00 38 1014.1
20260503214932 15 316 1.6 9.7 0.00 0.00 0.00 38 1013.9
20260503214429 15 88 3.2 4.8 0.00 0.00 0.00 38 1014.0
20260503213926 15 312 4.8 9.7 0.00 0.00 0.00 38 1013.9
20260503213425 16 53 1.6 6.4 0.00 0.00 0.00 36 1013.6
20260503212920 16 198 9.7 16.1 0.00 0.00 0.00 38 1013.7
20260503212418 16 344 3.2 6.4 0.00 0.00 0.00 38 1013.7
20260503211916 16 36 1.6 11.3 0.00 0.00 0.00 36 1013.7
20260503211412 16 133 1.6 11.3 0.00 0.00 0.00 36 1013.8
20260503210907 16 292 1.6 4.8 0.00 0.00 0.00 36 1014.0
20260503210405 15 143 0.0 6.4 0.00 0.00 0.00 37 1013.9
20260503205859 15 148 3.2 6.4 0.00 0.00 0.00 36 1013.9
20260503205356 16 111 0.0 3.2 0.00 0.00 0.00 37 1014.0
20260503204853 15 88 3.2 11.3 0.00 0.00 0.00 36 1014.1
20260503204350 15 151 0.0 3.2 0.00 0.00 0.00 38 1014.1
20260503203847 15 352 3.2 14.5 0.00 0.00 0.00 38 1014.2
20260503203344 15 265 3.2 11.3 0.00 0.00 0.00 38 1014.3
20260503202841 15 309 3.2 9.7 0.00 0.00 0.00 38 1014.2
20260503202339 15 15 3.2 6.4 0.00 0.00 0.00 38 1014.2
20260503201838 15 70 3.2 9.7 0.00 0.00 0.00 39 1014.4
20260503201334 15 1 6.4 11.3 0.00 0.00 0.00 37 1014.4
20260503200832 16 12 1.6 14.5 0.00 0.00 0.00 39 1014.4
20260503200327 15 296 8.0 12.9 0.00 0.00 0.00 38 1014.5
20260503195825 15 127 1.6 6.4 0.00 0.00 0.00 38 1014.5
20260503195321 14 118 3.2 11.3 0.00 0.00 0.00 39 1014.8
20260503194819 14 4 3.2 9.7 0.00 0.00 0.00 39 1014.7
20260503194314 14 61 3.2 4.8 0.00 0.00 0.00 38 1014.8
20260503193811 15 336 6.4 11.3 0.00 0.00 0.00 38 1015.0
20260503193307 15 16 3.2 16.1 0.00 0.00 0.00 39 1015.2
20260503192803 15 9 4.8 6.4 0.00 0.00 0.00 36 1015.1
20260503192258 15 346 6.4 12.9 0.00 0.00 0.00 34 1015.0
20260503191755 15 0 3.2 16.1 0.00 0.00 0.00 34 1015.3
20260503191252 15 315 6.4 6.4 0.00 0.00 0.00 36 1015.4
20260503190749 15 154 6.4 11.3 0.00 0.00 0.00 39 1015.2
20260503190246 15 31 1.6 4.8 0.00 0.00 0.00 37 1015.4
20260503185743 15 342 14.5 25.7 0.00 0.00 0.00 40 1015.5
20260503185238 15 295 6.4 12.9 0.00 0.00 0.00 38 1015.4
20260503184733 14 323 6.4 12.9 0.00 0.00 0.00 41 1015.8
20260503184230 13 336 4.8 12.9 0.00 0.00 0.00 41 1015.8
20260503183726 14 274 4.8 14.5 0.00 0.00 0.00 40 1015.8
20260503183223 15 322 3.2 6.4 0.00 0.00 0.00 43 1015.8
20260503182721 15 356 3.2 3.2 0.00 0.00 0.00 39 1015.8
20260503182220 14 271 3.2 16.1 0.00 0.00 0.00 41 1015.9
20260503181716 15 286 4.8 11.3 0.00 0.00 0.00 40 1015.9
20260503181213 15 315 4.8 6.4 0.00 0.00 0.00 40 1016.0
20260503180709 13 321 6.4 11.3 0.00 0.00 0.00 39 1016.1
20260503180208 14 78 6.4 9.7 0.00 0.00 0.00 40 1016.2
20260503175704 13 208 4.8 6.4 0.00 0.00 0.00 40 1016.4
20260503175202 13 296 3.2 9.7 0.00 0.00 0.00 42 1016.5
20260503174658 14 320 6.4 9.7 0.00 0.00 0.00 42 1016.4
20260503174156 13 289 6.4 9.7 0.00 0.00 0.00 39 1016.4
20260503173651 13 127 4.8 14.5 0.00 0.00 0.00 40 1016.5
20260503173147 13 340 6.4 11.3 0.00 0.00 0.00 40 1016.5
20260503172644 13 329 3.2 6.4 0.00 0.00 0.00 42 1016.4
20260503172141 13 27 4.8 6.4 0.00 0.00 0.00 44 1016.6
20260503171637 12 28 4.8 4.8 0.00 0.00 0.00 43 1016.7
20260503171135 12 321 6.4 14.5 0.00 0.00 0.00 44 1016.7
20260503170632 12 156 3.2 11.3 0.00 0.00 0.00 44 1016.7
20260503170129 13 293 3.2 11.3 0.00 0.00 0.00 44 1016.9
20260503150520 11 277 8.0 11.3 0.00 0.00 0.00 45 1017.7
20260503131413 8 62 0.0 4.8 0.00 0.00 0.00 68 1018.4
20260503130910 8 124 0.0 3.2 0.00 0.00 0.00 67 1018.4
20260503130408 7 49 1.6 3.2 0.00 0.00 0.00 70 1018.3
20260503110811 -1 99 0.0 0.0 0.00 0.00 0.00 99 1017.9
20260503110308 -1 97 0.0 1.6 0.00 0.00 0.00 99 1017.8
20260503100234 -1 71 0.0 0.0 0.00 0.00 0.00 99 1017.2
20260503090200 -1 102 0.0 0.0 0.00 0.00 0.00 99 1017.1
20260503081636 -1 90 0.0 0.0 0.00 0.00 0.00 99 1017.1
20260503081132 -1 90 0.0 0.0 0.00 0.00 0.00 99 1017.2
20260503080628 -1 90 0.0 0.0 0.00 0.00 0.00 99 1017.4
20260503080125 0 90 0.0 0.0 0.00 0.00 0.00 99 1017.2
20260503072602 0 90 0.0 0.0 0.00 0.00 0.00 99 1016.9
20260503072059 0 90 0.0 0.0 0.00 0.00 0.00 99 1016.8
20260503071556 0 90 0.0 0.0 0.00 0.00 0.00 99 1017.0
20260503071053 0 84 0.0 0.0 0.00 0.00 0.00 99 1017.0
20260503070549 0 83 0.0 0.0 0.00 0.00 0.00 99 1017.1
20260503055003 1 73 0.0 0.0 0.00 0.00 0.00 99 1017.2
20260503054459 1 86 0.0 0.0 0.00 0.00 0.00 99 1017.3
20260503053956 1 61 0.0 0.0 0.00 0.00 0.00 98 1017.1
20260503053454 1 61 0.0 0.0 0.00 0.00 0.00 98 1017.1
20260503052951 1 72 0.0 0.0 0.00 0.00 0.00 98 1017.1
20260503052448 1 55 0.0 0.0 0.00 0.00 0.00 98 1017.3
20260503051944 1 51 0.0 0.0 0.00 0.00 0.00 99 1017.2
20260503051440 1 57 0.0 0.0 0.00 0.00 0.00 99 1017.3
20260503050937 1 73 0.0 0.0 0.00 0.00 0.00 98 1017.3
20260503050433 1 73 0.0 0.0 0.00 0.00 0.00 98 1017.3
20260503045931 1 83 0.0 0.0 0.00 0.00 0.00 98 1017.3
20260503045428 1 83 0.0 0.0 0.00 0.00 0.00 98 1017.4
20260503044925 1 83 0.0 0.0 0.00 0.00 0.00 98 1017.3
20260503044422 1 90 0.0 0.0 0.00 0.00 0.00 98 1017.3
20260503043920 1 87 0.0 0.0 0.00 0.00 0.00 98 1017.4
20260503043416 1 102 0.0 0.0 0.00 0.00 0.00 98 1017.5
20260503042912 1 104 0.0 0.0 0.00 0.00 0.00 98 1017.5
20260503042409 1 74 0.0 0.0 0.00 0.00 0.00 98 1017.5
20260503041905 1 33 0.0 0.0 0.00 0.00 0.00 98 1017.5
20260503041402 1 80 0.0 0.0 0.00 0.00 0.00 98 1017.4
20260503040900 1 79 0.0 0.0 0.00 0.00 0.00 98 1017.5
20260503040357 1 48 0.0 0.0 0.00 0.23 0.23 98 1017.4
20260503035854 1 64 0.0 0.0 0.00 0.23 0.23 98 1017.6
20260503035351 1 54 0.0 0.0 0.00 0.23 0.23 98 1017.5
20260503034848 1 63 0.0 0.0 0.00 0.23 0.23 98 1017.4
20260503034346 1 63 0.0 0.0 0.00 0.23 0.23 98 1017.5
20260503033843 0 63 0.0 0.0 0.00 0.23 0.23 98 1017.4
20260503033340 1 63 0.0 0.0 0.00 0.23 0.23 97 1017.5
20260503032838 1 63 0.0 0.0 0.00 0.23 0.23 97 1017.4
20260503032337 1 63 0.0 0.0 0.00 0.23 0.23 97 1017.5
20260503031834 1 66 0.0 0.0 0.00 0.23 0.23 96 1017.5
20260503031331 1 67 0.0 0.0 0.00 0.23 0.23 95 1017.4
20260503030828 1 67 0.0 0.0 0.00 0.23 0.23 95 1017.4